星链-6070 (STARLINK-6070 )

导读 | 星芒AI

STARLINK-6070 是 SpaceX 为 Starlink 项目发射的第 6070 颗卫星,属于其低轨宽带互联网星座的一部分。该卫星旨在为全球用户提供高速、低延迟的互联网服务,特别是在网络基础设施薄弱的地区。它采用先进的通信技术,支持 Ku 和 Ka 频段,具备自动避撞功能,以确保太空安全。STARLINK-6070 的成功部署进一步增强了 Starlink 网络的覆盖能力与稳定性,推动了全球互联网接入的普及。

基本信息
目录编号:
56802
目录名称:
STARLINK-6070
国际标识:
2023-078AM
轨道中心:
EARTH
卫星名称:
星链-6070
卫星全名:
星链-6070 (STARLINK-6070 )
卫星状态:
在轨 (已飞行888 天)
发射日期:
2023-05-31 UTC
国别 :
美国 (US)
星等 :
--
轨道信息
数据来源 国际轨道数据 AOE轨道数据
星历时间 2025-11-03T23:28:07+0800
14小时前
查看轨道信息
2025-10-31T00:00:00+0800
4天前
查看轨道信息
半长轴 6950.191km 6950.182km
偏心率 0.0002928 0.0003494
轨道倾角 69.998° 70.000°
近地点辐角 268.849° 274.683°
升交点赤经 282.243° 292.275°
平近点角 91.233° 234.983°
近地点 570.02km 569.618km
远地点 574.092km 574.476km
周期 96.107分钟 96.107分钟
每日圈数 14.983309 14.983336
详细信息
固有亮度:
5
最大亮度:
2.5
卫星平台:
Starlink v1.5
覆盖范围:
全球
运营商:
太空探索技术公司
运营商所在国:
美国
制造商(研发单位):
太空探索技术公司
制造商所在国:
美国
使用方式:
暂无
卫星简介
星链(Starlink)计划是由太空探索技术公司(SpaceX)提出的一个巨型低轨卫星互联网星座项目,计划在2019年至2024年间在太空搭建由约1.2万颗卫星组成的“星链”网络,其中1584颗将部署在地球上空550千米处的近地轨道,并从2020年开始工作。该卫星仍在工作。
2D轨道图
3D轨道图
轨道高度分析图
轨道倾角分析图
轨道综合分析图
查看轨道综合分析图